Previsão horária em Ali-Kuyu

Hoje, 22 Junho, Terça-feira

Tempo Temperatura Precipitação Vento Pressão Humidade
00:00 +26°C° 0 mm 6 m/s 749 mmHg 28%
01:00 +26°C° 0 mm 5 m/s 749 mmHg 30%
02:00 +25°C° 0 mm 5 m/s 749 mmHg 33%
03:00 +25°C° 0 mm 4 m/s 749 mmHg 36%
04:00 +25°C° 0 mm 4 m/s 749 mmHg 39%
05:00 +25°C° 0 mm 4 m/s 749 mmHg 41%
06:00 +25°C° 0 mm 4 m/s 749 mmHg 44%
07:00 +27°C° 0 mm 5 m/s 749 mmHg 39%
08:00 +29°C° 0 mm 5 m/s 749 mmHg 35%
09:00 +32°C° 0 mm 5 m/s 750 mmHg 30%
10:00 +35°C° 0 mm 7 m/s 749 mmHg 24%
11:00 +38°C° 0 mm 8 m/s 749 mmHg 19%
12:00 +40°C° 0 mm 9 m/s 749 mmHg 13%
13:00 +40°C° 0 mm 10 m/s 748 mmHg 13%
14:00 +40°C° 0 mm 10 m/s 748 mmHg 13%
15:00 +41°C° 0 mm 11 m/s 748 mmHg 13%
16:00 +39°C° 0 mm 10 m/s 748 mmHg 16%
17:00 +38°C° 0 mm 10 m/s 748 mmHg 18%
18:00 +35°C° 0 mm 9 m/s 748 mmHg 20%
19:00 +34°C° 0 mm 8 m/s 748 mmHg 21%
20:00 +32°C° 0 mm 7 m/s 749 mmHg 23%
21:00 +30°C° 0 mm 6 m/s 749 mmHg 24%
22:00 +28°C° 0 mm 5 m/s 749 mmHg 28%
23:00 +27°C° 0 mm 4 m/s 749 mmHg 32%

Amanhã, 23 Junho, Quarta-feira

Tempo Temperatura Precipitação Vento Pressão Humidade
00:00 +26°C° 0 mm 3 m/s 749 mmHg 36%
01:00 +25°C° 0 mm 3 m/s 749 mmHg 40%
02:00 +25°C° 0 mm 2 m/s 749 mmHg 45%
03:00 +24°C° 0 mm 2 m/s 749 mmHg 50%
04:00 +24°C° 0 mm 2 m/s 750 mmHg 49%
05:00 +24°C° 0 mm 2 m/s 750 mmHg 49%
06:00 +25°C° 0 mm 2 m/s 750 mmHg 49%
07:00 +27°C° 0 mm 2 m/s 750 mmHg 44%
08:00 +28°C° 0 mm 2 m/s 750 mmHg 39%
09:00 +30°C° 0 mm 2 m/s 751 mmHg 35%
10:00 +32°C° 0 mm 2 m/s 750 mmHg 32%
11:00 +35°C° 0 mm 2 m/s 750 mmHg 29%
12:00 +36°C° 0 mm 2 m/s 750 mmHg 26%
13:00 +38°C° 0 mm 4 m/s 750 mmHg 23%
14:00 +40°C° 0 mm 5 m/s 750 mmHg 20%
15:00 +41°C° 0 mm 7 m/s 749 mmHg 17%
16:00 +39°C° 0 mm 7 m/s 750 mmHg 19%
17:00 +38°C° 0 mm 7 m/s 750 mmHg 21%
18:00 +35°C° 0 mm 7 m/s 750 mmHg 23%
19:00 +33°C° 0 mm 6 m/s 750 mmHg 28%
20:00 +30°C° 0 mm 6 m/s 751 mmHg 32%
21:00 +28°C° 0 mm 5 m/s 751 mmHg 36%
22:00 +27°C° 0 mm 4 m/s 751 mmHg 40%
23:00 +26°C° 0 mm 4 m/s 751 mmHg 43%

Depois de amanhã, 24 Junho, Quinta-feira

Tempo Temperatura Precipitação Vento Pressão Humidade
00:00 +25°C° 0 mm 4 m/s 751 mmHg 47%
01:00 +25°C° 0 mm 3 m/s 751 mmHg 50%
02:00 +24°C° 0 mm 3 m/s 751 mmHg 52%
03:00 +24°C° 0 mm 2 m/s 751 mmHg 55%
04:00 +24°C° 0 mm 2 m/s 751 mmHg 55%
05:00 +24°C° 0 mm 2 m/s 751 mmHg 55%
06:00 +25°C° 0 mm 1 m/s 751 mmHg 54%
07:00 +27°C° 0 mm 1 m/s 751 mmHg 49%
08:00 +28°C° 0 mm 2 m/s 751 mmHg 45%
09:00 +30°C° 0 mm 2 m/s 751 mmHg 40%
10:00 +32°C° 0 mm 2 m/s 751 mmHg 34%
11:00 +35°C° 0 mm 2 m/s 751 mmHg 29%
12:00 +37°C° 0 mm 2 m/s 751 mmHg 23%
13:00 +38°C° 0 mm 3 m/s 750 mmHg 20%
14:00 +41°C° 0 mm 4 m/s 749 mmHg 18%
15:00 +42°C° 0 mm 4 m/s 749 mmHg 15%
16:00 +41°C° 0 mm 5 m/s 749 mmHg 18%
17:00 +39°C° 0 mm 6 m/s 749 mmHg 20%
18:00 +38°C° 0 mm 6 m/s 750 mmHg 23%
19:00 +35°C° 0 mm 5 m/s 750 mmHg 26%
20:00 +32°C° 0 mm 5 m/s 750 mmHg 29%
21:00 +29°C° 0 mm 4 m/s 751 mmHg 32%
22:00 +28°C° 0 mm 4 m/s 750 mmHg 36%
23:00 +27°C° 0 mm 3 m/s 750 mmHg 39%

25 Junho, Sexta-feira

Tempo Temperatura Precipitação Vento Pressão Humidade
00:00 +26°C° 0 mm 3 m/s 750 mmHg 42%
01:00 +26°C° 0 mm 3 m/s 750 mmHg 45%
02:00 +25°C° 0 mm 2 m/s 750 mmHg 47%
03:00 +25°C° 0 mm 2 m/s 750 mmHg 49%
04:00 +25°C° 0 mm 2 m/s 750 mmHg 49%
05:00 +26°C° 0 mm 1 m/s 750 mmHg 48%
06:00 +26°C° 0 mm 1 m/s 750 mmHg 48%
07:00 +28°C° 0 mm 1 m/s 750 mmHg 44%
08:00 +30°C° 0 mm 2 m/s 750 mmHg 40%
09:00 +31°C° 0 mm 2 m/s 750 mmHg 36%
10:00 +34°C° 0 mm 2 m/s 750 mmHg 34%
11:00 +34°C° 0 mm 1 m/s 749 mmHg 32%
12:00 +36°C° 0 mm 1 m/s 749 mmHg 30%
13:00 +36°C° 0 mm 1 m/s 749 mmHg 28%
14:00 +38°C° 0 mm 2 m/s 748 mmHg 27%
15:00 +39°C° 0 mm 2 m/s 748 mmHg 25%
16:00 +38°C° 0 mm 3 m/s 748 mmHg 27%
17:00 +38°C° 0 mm 4 m/s 748 mmHg 30%
18:00 +37°C° 0 mm 5 m/s 748 mmHg 32%
19:00 +35°C° 0 mm 4 m/s 748 mmHg 38%
20:00 +33°C° 0 mm 4 m/s 748 mmHg 45%
21:00 +30°C° 0 mm 4 m/s 749 mmHg 51%
22:00 +29°C° 0.2 mm 4 m/s 749 mmHg 54%
23:00 +28°C° 0.2 mm 3 m/s 749 mmHg 57%

26 Junho, Sábado

Tempo Temperatura Precipitação Vento Pressão Humidade
00:00 +27°C° 0.2 mm 3 m/s 749 mmHg 60%
01:00 +27°C° 0 mm 3 m/s 748 mmHg 63%
02:00 +26°C° 0 mm 3 m/s 748 mmHg 65%
03:00 +26°C° 0 mm 3 m/s 748 mmHg 67%
04:00 +26°C° 0 mm 3 m/s 748 mmHg 66%
05:00 +27°C° 0 mm 3 m/s 749 mmHg 65%
06:00 +27°C° 0 mm 3 m/s 749 mmHg 64%
07:00 +29°C° 0 mm 3 m/s 749 mmHg 56%
08:00 +32°C° 0 mm 4 m/s 749 mmHg 48%
09:00 +34°C° 0 mm 4 m/s 749 mmHg 40%
10:00 +35°C° 0 mm 4 m/s 748 mmHg 36%
11:00 +36°C° 0 mm 4 m/s 748 mmHg 33%
12:00 +38°C° 0 mm 4 m/s 748 mmHg 29%
13:00 +38°C° 0 mm 4 m/s 748 mmHg 28%
14:00 +40°C° 0 mm 4 m/s 747 mmHg 26%
15:00 +40°C° 0 mm 4 m/s 747 mmHg 25%
16:00 +40°C° 0 mm 4 m/s 747 mmHg 28%
17:00 +39°C° 0 mm 5 m/s 747 mmHg 31%
18:00 +37°C° 0 mm 5 m/s 747 mmHg 34%
19:00 +35°C° 0.2 mm 5 m/s 748 mmHg 41%
20:00 +33°C° 0.2 mm 4 m/s 748 mmHg 48%
21:00 +30°C° 0.2 mm 4 m/s 748 mmHg 55%
22:00 +30°C° 0.1 mm 4 m/s 748 mmHg 55%
23:00 +29°C° 0.1 mm 3 m/s 748 mmHg 56%

27 Junho, Domingo

Tempo Temperatura Precipitação Vento Pressão Humidade
00:00 +28°C° 0.1 mm 3 m/s 748 mmHg 56%
01:00 +28°C° 0.1 mm 3 m/s 748 mmHg 59%
02:00 +27°C° 0.1 mm 4 m/s 749 mmHg 63%
03:00 +26°C° 0.1 mm 4 m/s 749 mmHg 66%
04:00 +27°C° 0 mm 4 m/s 749 mmHg 66%
05:00 +27°C° 0 mm 4 m/s 749 mmHg 66%
06:00 +27°C° 0 mm 4 m/s 749 mmHg 66%
07:00 +29°C° 0 mm 4 m/s 749 mmHg 60%
08:00 +32°C° 0 mm 5 m/s 749 mmHg 54%
09:00 +34°C° 0 mm 5 m/s 749 mmHg 48%
10:00 +35°C° 0 mm 5 m/s 749 mmHg 45%
11:00 +36°C° 0 mm 5 m/s 749 mmHg 42%
12:00 +37°C° 0 mm 4 m/s 749 mmHg 40%
13:00 +37°C° 0 mm 4 m/s 749 mmHg 38%
14:00 +38°C° 0 mm 4 m/s 749 mmHg 36%
15:00 +38°C° 0 mm 4 m/s 749 mmHg 35%
16:00 +38°C° 0 mm 4 m/s 749 mmHg 35%
17:00 +38°C° 0 mm 4 m/s 749 mmHg 35%
18:00 +37°C° 0 mm 5 m/s 749 mmHg 36%
19:00 +35°C° 0.2 mm 5 m/s 749 mmHg 43%
20:00 +33°C° 0.2 mm 6 m/s 750 mmHg 51%
21:00 +30°C° 0.2 mm 6 m/s 750 mmHg 58%
22:00 +29°C° 0.4 mm 6 m/s 750 mmHg 62%
23:00 +27°C° 0.4 mm 5 m/s 750 mmHg 66%
Mostrar mais